When you browse on this site, cookies collect data to enhance your experience and personalize the content and advertising you see.
Visit our Privacy Policy to learn more. By continuing to use the site, you agree to this use of cookies and data.
  • In Hungary
  • List of Countries
  • For 7 days
  • Water Temperature
  • Weather Map
  • News
  • Weather Widgets
  • user-avatar
    Login

    Hourly Weather Barra

    Today, 22 September, Sunday

    Time Temperature Precipitation Wind Pressure Humidity
    00:00 +19°C° 0.1 mm 3 mps 753 mmHg 89%
    01:00 +19°C° 0.1 mm 3 mps 753 mmHg 90%
    02:00 +19°C° 0 mm 3 mps 753 mmHg 90%
    03:00 +18°C° 0 mm 3 mps 753 mmHg 90%
    04:00 +18°C° 0 mm 3 mps 753 mmHg 90%
    05:00 +19°C° 0 mm 3 mps 753 mmHg 88%
    06:00 +19°C° 0 mm 3 mps 753 mmHg 87%
    07:00 +20°C° 0 mm 3 mps 754 mmHg 85%
    08:00 +21°C° 0.1 mm 3 mps 754 mmHg 80%
    09:00 +22°C° 0.1 mm 4 mps 754 mmHg 75%
    10:00 +26°C° 0 mm 5 mps 754 mmHg 63%
    11:00 +27°C° 0 mm 5 mps 754 mmHg 58%
    12:00 +27°C° 0 mm 5 mps 753 mmHg 54%
    13:00 +28°C° 0 mm 5 mps 753 mmHg 50%
    14:00 +27°C° 0 mm 5 mps 753 mmHg 53%
    15:00 +27°C° 0 mm 5 mps 753 mmHg 55%
    16:00 +26°C° 0 mm 4 mps 753 mmHg 57%
    17:00 +25°C° 0 mm 4 mps 753 mmHg 66%
    18:00 +22°C° 0 mm 3 mps 753 mmHg 75%
    19:00 +20°C° 0 mm 3 mps 754 mmHg 84%
    20:00 +20°C° 0 mm 3 mps 754 mmHg 87%
    21:00 +20°C° 0 mm 3 mps 754 mmHg 89%
    22:00 +19°C° 0 mm 3 mps 755 mmHg 92%
    23:00 +19°C° 0.1 mm 3 mps 755 mmHg 92%

    Tomorrow, 23 September, Monday

    Time Temperature Precipitation Wind Pressure Humidity
    00:00 +19°C° 0.1 mm 3 mps 754 mmHg 93%
    01:00 +19°C° 0.1 mm 3 mps 754 mmHg 93%
    02:00 +19°C° 0.1 mm 3 mps 754 mmHg 94%
    03:00 +19°C° 0.1 mm 3 mps 754 mmHg 94%
    04:00 +19°C° 0.1 mm 3 mps 753 mmHg 94%
    05:00 +20°C° 0.2 mm 4 mps 754 mmHg 93%
    06:00 +20°C° 0.2 mm 4 mps 754 mmHg 92%
    07:00 +20°C° 0.2 mm 4 mps 754 mmHg 91%
    08:00 +21°C° 0.3 mm 4 mps 754 mmHg 88%
    09:00 +22°C° 0.3 mm 5 mps 754 mmHg 85%
    10:00 +23°C° 0.3 mm 5 mps 754 mmHg 82%
    11:00 +25°C° 0.2 mm 5 mps 754 mmHg 75%
    12:00 +26°C° 0.2 mm 5 mps 753 mmHg 68%
    13:00 +27°C° 0.2 mm 5 mps 753 mmHg 61%
    14:00 +27°C° 0 mm 5 mps 753 mmHg 60%
    15:00 +27°C° 0 mm 5 mps 752 mmHg 59%
    16:00 +26°C° 0 mm 4 mps 752 mmHg 58%
    17:00 +25°C° 0 mm 4 mps 752 mmHg 67%
    18:00 +22°C° 0 mm 3 mps 753 mmHg 76%
    19:00 +20°C° 0 mm 3 mps 753 mmHg 86%
    20:00 +20°C° 0 mm 3 mps 754 mmHg 87%
    21:00 +19°C° 0 mm 3 mps 754 mmHg 89%
    22:00 +19°C° 0 mm 2 mps 755 mmHg 91%
    23:00 +19°C° 0 mm 3 mps 754 mmHg 92%

    Day after tomorrow, 24 September, Tuesday

    Time Temperature Precipitation Wind Pressure Humidity
    00:00 +19°C° 0 mm 3 mps 754 mmHg 92%
    01:00 +19°C° 0 mm 3 mps 753 mmHg 93%
    02:00 +19°C° 0.1 mm 3 mps 753 mmHg 93%
    03:00 +19°C° 0.1 mm 3 mps 753 mmHg 93%
    04:00 +20°C° 0.1 mm 3 mps 752 mmHg 93%
    05:00 +20°C° 0.1 mm 4 mps 753 mmHg 92%
    06:00 +20°C° 0.1 mm 4 mps 753 mmHg 91%
    07:00 +21°C° 0.1 mm 4 mps 753 mmHg 90%
    08:00 +22°C° 0.1 mm 4 mps 753 mmHg 84%
    09:00 +23°C° 0.1 mm 4 mps 754 mmHg 79%
    10:00 +25°C° 0.1 mm 4 mps 754 mmHg 73%
    11:00 +26°C° 0.1 mm 4 mps 753 mmHg 70%
    12:00 +26°C° 0.1 mm 5 mps 753 mmHg 66%
    13:00 +27°C° 0.1 mm 5 mps 752 mmHg 63%
    14:00 +27°C° 0 mm 5 mps 752 mmHg 62%
    15:00 +27°C° 0 mm 5 mps 752 mmHg 61%
    16:00 +27°C° 0 mm 5 mps 752 mmHg 61%
    17:00 +25°C° 0 mm 4 mps 752 mmHg 70%
    18:00 +22°C° 0 mm 4 mps 753 mmHg 80%
    19:00 +20°C° 0 mm 4 mps 753 mmHg 89%
    20:00 +20°C° 0 mm 4 mps 754 mmHg 90%
    21:00 +20°C° 0 mm 4 mps 754 mmHg 92%
    22:00 +20°C° 0 mm 4 mps 755 mmHg 93%
    23:00 +19°C° 0 mm 4 mps 754 mmHg 93%

    25 September, Wednesday

    Time Temperature Precipitation Wind Pressure Humidity
    00:00 +19°C° 0 mm 4 mps 754 mmHg 92%
    01:00 +19°C° 0 mm 3 mps 753 mmHg 92%
    02:00 +19°C° 0.1 mm 3 mps 753 mmHg 91%
    03:00 +19°C° 0.1 mm 3 mps 753 mmHg 91%
    04:00 +19°C° 0.1 mm 3 mps 753 mmHg 90%
    05:00 +20°C° 0 mm 3 mps 753 mmHg 88%
    06:00 +20°C° 0 mm 3 mps 753 mmHg 87%
    07:00 +21°C° 0 mm 3 mps 754 mmHg 85%
    08:00 +22°C° 0 mm 4 mps 754 mmHg 77%
    09:00 +25°C° 0 mm 4 mps 754 mmHg 68%
    10:00 +26°C° 0 mm 4 mps 754 mmHg 59%
    11:00 +27°C° 0 mm 5 mps 754 mmHg 58%
    12:00 +27°C° 0 mm 5 mps 753 mmHg 56%
    13:00 +28°C° 0 mm 5 mps 752 mmHg 55%
    14:00 +27°C° 0 mm 5 mps 752 mmHg 57%
    15:00 +27°C° 0 mm 5 mps 752 mmHg 59%
    16:00 +26°C° 0 mm 5 mps 752 mmHg 62%
    17:00 +25°C° 0 mm 4 mps 752 mmHg 69%
    18:00 +22°C° 0 mm 4 mps 753 mmHg 77%
    19:00 +21°C° 0 mm 4 mps 753 mmHg 85%
    20:00 +20°C° 0.1 mm 4 mps 754 mmHg 87%
    21:00 +20°C° 0.1 mm 4 mps 754 mmHg 88%
    22:00 +20°C° 0.1 mm 4 mps 754 mmHg 90%
    23:00 +20°C° 0.1 mm 4 mps 754 mmHg 90%

    26 September, Thursday

    Time Temperature Precipitation Wind Pressure Humidity
    00:00 +20°C° 0.1 mm 4 mps 754 mmHg 90%
    01:00 +20°C° 0.1 mm 4 mps 753 mmHg 91%
    02:00 +20°C° 0.1 mm 4 mps 753 mmHg 91%
    03:00 +20°C° 0.1 mm 3 mps 753 mmHg 91%
    04:00 +19°C° 0.1 mm 3 mps 752 mmHg 92%
    05:00 +20°C° 0.3 mm 3 mps 753 mmHg 91%
    06:00 +21°C° 0.3 mm 4 mps 754 mmHg 90%
    07:00 +21°C° 0.3 mm 4 mps 754 mmHg 89%
    08:00 +23°C° 0.1 mm 4 mps 754 mmHg 80%
    09:00 +25°C° 0.1 mm 4 mps 754 mmHg 71%
    10:00 +26°C° 0.1 mm 5 mps 754 mmHg 62%
    11:00 +27°C° 0 mm 5 mps 754 mmHg 60%
    12:00 +27°C° 0 mm 5 mps 753 mmHg 58%
    13:00 +27°C° 0 mm 5 mps 752 mmHg 57%
    14:00 +27°C° 0 mm 5 mps 752 mmHg 58%
    15:00 +27°C° 0 mm 5 mps 752 mmHg 58%
    16:00 +26°C° 0 mm 4 mps 752 mmHg 59%
    17:00 +25°C° 0 mm 4 mps 752 mmHg 68%
    18:00 +22°C° 0 mm 4 mps 752 mmHg 76%
    19:00 +20°C° 0 mm 3 mps 753 mmHg 84%
    20:00 +20°C° 0 mm 3 mps 753 mmHg 85%
    21:00 +19°C° 0 mm 3 mps 754 mmHg 87%
    22:00 +19°C° 0 mm 3 mps 754 mmHg 88%
    23:00 +19°C° 0 mm 3 mps 754 mmHg 87%

    27 September, Friday

    Time Temperature Precipitation Wind Pressure Humidity
    00:00 +19°C° 0 mm 3 mps 753 mmHg 86%
    01:00 +20°C° 0 mm 3 mps 753 mmHg 85%
    02:00 +20°C° 0 mm 3 mps 753 mmHg 85%
    03:00 +19°C° 0 mm 3 mps 753 mmHg 86%
    04:00 +19°C° 0 mm 2 mps 753 mmHg 86%
    05:00 +20°C° 0.1 mm 2 mps 753 mmHg 85%
    06:00 +20°C° 0.1 mm 2 mps 753 mmHg 84%
    07:00 +21°C° 0.1 mm 2 mps 754 mmHg 83%
    08:00 +23°C° 0.2 mm 2 mps 754 mmHg 81%
    09:00 +24°C° 0.2 mm 3 mps 754 mmHg 78%
    10:00 +25°C° 0.2 mm 3 mps 754 mmHg 75%
    11:00 +26°C° 0.2 mm 4 mps 753 mmHg 71%
    12:00 +27°C° 0.2 mm 4 mps 753 mmHg 67%
    13:00 +28°C° 0.2 mm 4 mps 752 mmHg 62%
    14:00 +27°C° 0.1 mm 4 mps 752 mmHg 64%
    15:00 +27°C° 0.1 mm 4 mps 752 mmHg 66%
    16:00 +27°C° 0.1 mm 4 mps 751 mmHg 68%
    17:00 +25°C° 0.2 mm 4 mps 752 mmHg 76%
    18:00 +23°C° 0.2 mm 4 mps 752 mmHg 84%
    19:00 +21°C° 0.2 mm 3 mps 753 mmHg 93%
    20:00 +21°C° 0.2 mm 3 mps 753 mmHg 93%
    21:00 +21°C° 0.2 mm 3 mps 753 mmHg 94%
    22:00 +21°C° 0.2 mm 3 mps 754 mmHg 95%
    23:00 +21°C° 0.2 mm 3 mps 753 mmHg 95%
    Show more